Dubai, UAE

5:58 PM +04 on July 25, 2017 (GMT +0400)
Dubai

Weather History for 41194 - March, 2014

Change the Weather History Date:

Saturday, March 8, 2014

  Actual Average Record
Temperature  
Mean Temperature 78 °F -  
Max Temperature 86 °F 83 °F - ()
Min Temperature 70 °F 66 °F - ()
Cooling Degree Days 13    
Growing Degree Days 28 (Base 50)    
Moisture  
Dew Point 61 °F    
Average Humidity 55    
Maximum Humidity 73    
Minimum Humidity 31    
Precipitation  
Precipitation 0.00 in 0.02 in - ()
Sea Level Pressure  
Sea Level Pressure 30.00 in    
Wind  
Wind Speed 5 mph ()    
Max Wind Speed 14 mph    
Max Gust Speed -    
Visibility 6.0 miles    
Events      
T = Trace of Precipitation, MM = Missing Value Source: Averaged Metar Reports

Daily Weather History Graph

Daily Weather History Graph

Search for Another Location

Airport or City:

Trip Planner

Search our weather history database for the weather conditions in past years. The results will help you decide how hot, cold, wet, or windy it might be!

Date:

Astronomy

Mar. 08, 2014 Rise Set
Actual Time 6:35 AM +04 6:24 PM +04
Civil Twilight 6:12 AM +04 6:47 PM +04
Nautical Twilight 5:45 AM +04 7:13 PM +04
Astronomical Twilight 5:19 AM +04 7:40 PM +04
Moon 11:34 AM +04 (3/8) 12:24 AM +04 (3/8)
Length of Visible Light 12h 34m
Length of Day
11h 48m
Waxing Crescent, 48% of the Moon is Illuminated
Mar 8
Waxing Crescent
Mar 8
First Quarter
Mar 16
Full
Mar 24
Last Quarter
Mar 30
New

Hourly Weather History & Observations

Time (+04) Temp. Heat Index Dew Point Humidity Pressure Visibility Wind Dir Wind Speed Gust Speed Precip Events Conditions
12:00 AM 75.2 °F - 57.2 °F 53% 29.98 in - East 4.6 mph - N/A   Clear
1:00 AM 76 °F - 57 °F 41% 29.99 in 6 mi East 5.8 mph - -  
1:00 AM 75.2 °F - 57.2 °F 53% 29.98 in - East 5.8 mph - N/A   Clear
2:00 AM 75.2 °F - 59.0 °F 57% 29.95 in - East 3.5 mph - N/A   Clear
3:00 AM 73.4 °F - 60.8 °F 65% 29.95 in - East 3.5 mph - N/A   Clear
4:00 AM 74 °F - 62 °F 58% 29.96 in 6 mi 3.5 mph - -  
4:00 AM 73.4 °F - 62.6 °F 69% 29.95 in - East 3.5 mph - N/A   Clear
5:00 AM 71.6 °F - 60.8 °F 69% 29.95 in - East 6.9 mph - N/A   Clear
6:00 AM 71.6 °F - 60.8 °F 69% 29.98 in - ENE 4.6 mph - N/A   Clear
7:00 AM 71 °F - 61 °F 64% 30.01 in 6 mi East 8.1 mph - -   Partly Cloudy
7:00 AM 71.6 °F - 60.8 °F 69% 30.01 in - East 8.1 mph - N/A   Clear
8:00 AM 71.6 °F - 62.6 °F 73% 30.04 in - ESE 5.8 mph - N/A   Clear
9:00 AM 77.0 °F - 60.8 °F 57% 30.06 in - Variable 6.9 mph - N/A   Clear
10:00 AM 80 °F - 58 °F 36% 30.07 in 6 mi 3.5 mph - -   Scattered Clouds
10:00 AM 80.6 °F 80.8 °F 57.2 °F 45% 30.06 in - Variable 3.5 mph - N/A   Clear
11:00 AM 84.2 °F 83.5 °F 57.2 °F 40% 30.06 in - Variable 4.6 mph - N/A   Clear
12:00 PM 86.0 °F 84.5 °F 55.4 °F 35% 30.04 in - WNW 8.1 mph - N/A   Clear
1:00 PM 86 °F - 60 °F 31% 30.03 in 6 mi NW 8.1 mph - -   Partly Cloudy
1:00 PM 86.0 °F 86.1 °F 60.8 °F 43% 30.01 in - NW 8.1 mph - N/A   Clear
2:00 PM 84.2 °F 83.8 °F 59.0 °F 42% 29.98 in - NW 11.5 mph - N/A   Clear
3:00 PM 86.0 °F 85.4 °F 59.0 °F 40% 29.98 in - WNW 12.7 mph - N/A   Clear
4:00 PM 82.4 °F 82.9 °F 60.8 °F 48% 29.98 in - WNW 13.8 mph - N/A   Clear
5:00 PM 82.4 °F 82.9 °F 60.8 °F 48% 29.98 in - WNW 12.7 mph - N/A   Clear
6:00 PM 80.6 °F 82.3 °F 64.4 °F 58% 29.98 in - North - - N/A   Clear
7:00 PM 79 °F - 63 °F 49% 29.98 in 6 mi NNW 5.8 mph - -   Scattered Clouds
7:00 PM 78.8 °F - 62.6 °F 57% 29.98 in - NNW 4.6 mph - N/A   Clear
8:00 PM 77.0 °F - 64.4 °F 65% 30.01 in - NW 8.1 mph - N/A   Clear
9:00 PM 75.2 °F - 66.2 °F 73% 30.01 in - North - - N/A   Clear
10:00 PM 76 °F - 65 °F 60% 30.04 in 6 mi NNE 3.5 mph - -  
10:00 PM 75.2 °F - 64.4 °F 69% 30.04 in - NNE 3.5 mph - N/A   Clear